Regional Weather Roundup
Issued by NWS

Home | Current Version | Previous Version | Graphics & Text | Print | Product List | Glossary On
Versions: 1 2 3 4 5 6 7 8 9 10 11 12 13 14 15 16 17 18 19 20 21 22 23 24 25 26 27
000
ASUS45 KBOU 151106
RWRCO

WEATHER ROUNDUP FOR COLORADO
NATIONAL WEATHER SERVICE DENVER/BOULDER CO
500 AM MDT TUE APR 15 2014

NOTE: "FAIR" INDICATES FEW OR NO CLOUDS BELOW 12000 FEET WITH NO
SIGNIFICANT WEATHER AND/OR OBSTRUCTIONS TO VISIBILITY.

COZ001>005-013-030-031-151200-
...NORTHWEST COLORADO...

CITY           SKY/WX    TMP DP  RH WIND       PRES   REMARKS
CRAIG          PTCLDY    21  16  81 CALM      30.17F
HAYDEN         PTCLDY    23  16  74 E9        30.18F WCI  13
MEEKER         CLEAR     24  19  81 CALM      30.19F
MOUNT WERNER   PTCLDY    23  10  58 SW16      30.16F WCI  10
STEAMBOAT SPGS PTCLDY    19  14  81 CALM      30.18F
WALDEN         PTCLDY    18  10  73 SE7       30.11F WCI   8
$$

COZ006>008-011-151200-
...WEST CENTRAL VALLEYS...

CITY           SKY/WX    TMP DP  RH WIND       PRES   REMARKS
GRAND JUNCTION CLEAR     31  21  66 E12       30.21F WCI  22
MONTROSE       CLEAR     28  18  66 SE8       30.24F WCI  20
EAGLE          PTCLDY    21  19  93 CALM      30.25F
RIFLE          PTCLDY    25  21  85 CALM      30.24F
DELTA          CLEAR     30  24  76 SE3       30.24F
NUCLA            N/A     28  18  64 S3        30.25S
$$

COZ017>023-064>068-151200-
...SOUTHWEST COLORADO...

CITY           SKY/WX    TMP DP  RH WIND       PRES   REMARKS
DURANGO        CLEAR     18   3  52 NE6       30.20S WCI  10
CORTEZ         CLEAR     20  13  74 NE7       30.20F WCI  11
PAGOSA SPRINGS CLEAR     22  10  59 CALM      30.22S
TELLURIDE      CLEAR     21  10  63 SE5       30.22F WCI  15
WOLF CREEK PAS NOT AVBL
$$

COZ009-010-012-014-032>034-037-058>063-151200-
...CENTRAL COLORADO...

CITY           SKY/WX    TMP DP  RH WIND       PRES   REMARKS
ASPEN          PTCLDY    19  11  70 SW3       30.20F
BUENA VISTA    CLEAR     21  13  70 SE5       30.16S WCI  15
COPPER MTN     PTCLDY    19  12  73 W24G31    30.16F WCI   2
BERTHOUD PASS  LGT SNOW   9   0  66 NW37G49   30.07F WCI -16
COTTONWOOD PAS CLEAR     30   3  31 W17G23    30.15S WCI  18
GUNNISON       CLEAR     18  10  73 CALM      30.27F
KREMMLING      CLEAR     16  10  79 E6        30.21F WCI   7
LEADVILLE      CLEAR      9   1  70 NE8       30.17F WCI  -3
MONARCH PASS   CLEAR     12   5  73 MISG      30.26F
SALIDA         CLEAR     31   6  33 NW8       30.23F WCI  24
SUNLIGHT       PTCLDY    19  14  79 SW3       30.21F
WILKERSON PASS PTCLDY    19   5  53 W16G26    30.12F WCI   5
$$

COZ069>075-151200-
...SAN LUIS VALLEY/SANGRE DE CRISTO MOUNTAINS...

CITY           SKY/WX    TMP DP  RH WIND       PRES   REMARKS
ALAMOSA        PTCLDY    22  17  81 CALM      30.19F
LA VETA PASS   PTCLDY    21   3  45 SW12G23   30.12S WCI   9
SAGUACHE       CLEAR     23   5  46 NW9       30.19F WCI  13
$$

COZ035-036-038>040-151200-
...NORTHERN COLORADO FRONT RANGE...

CITY           SKY/WX    TMP DP  RH WIND       PRES   REMARKS
DENVER INTL AP PTCLDY    34  18  52 SW18      30.01F WCI  23
DMNS CITY PARK   N/A     35  16  45 S6        30.01F WCI  30
AURORA         PTCLDY    32  18  55 S13       30.02F WCI  22
FRONT RANGE AP NOT AVBL
ERIE MUNI ARPT PTCLDY    34  19  54 CALM      30.00F
BOULDER MUN AP PTCLDY    45  14  29 W18G24    29.98F
CENTENNIAL     PTCLDY    31  16  54 S8        30.02F WCI  23
BROOMFIELD     PTCLDY    43  14  31 W20G28    30.01F
FORT COLLINS   CLEAR     25  19  80 CALM      30.01F
LONGMONT       CLEAR     27  23  85 CALM      30.02F
$$

COZ041-046-047-076>085-087-088-151200-
...PIKES PEAK/PALMER DIVIDE AND SOUTHERN FOOTHILLS...

CITY           SKY/WX    TMP DP  RH WIND       PRES   REMARKS
COLO. SPRINGS  CLEAR     23  18  81 NE7       30.09F WCI  15
A. F. ACADEMY  CLEAR     20  16  87 NW6       30.07F WCI  12
ELLICOTT       NOT AVBL
FALCON         CLEAR     23  20  89 W8        30.08F WCI  14
FORT CARSON    PTCLDY    22  19  88 N6        30.07F WCI  15
LIMON          CLEAR     24  19  81 E3        30.05F
MONUMENT HILL  CLEAR     28  14  54 SW14      30.05S WCI  17
TRINIDAD       CLEAR     29  22  75 SW13      30.11F WCI  19
$$

COZ042>045-048>051-090-091-151200-
...NORTHEAST COLORADO...

CITY           SKY/WX    TMP DP  RH WIND       PRES   REMARKS
GREELEY ARPT   CLEAR     23  16  74 CALM      30.01F
AKRON          CLEAR     29  22  75 SW15      30.01F WCI  18
BURLINGTON     CLEAR     27  16  63 SW14      30.08F WCI  16
WRAY           CLEAR     31  23  74 SW10      30.04F WCI  22
STERLING       CLEAR     27  25  93 W5        30.01F WCI  21
HOLYOKE        CLEAR     25  19  80 S5        30.03F WCI  19
FORT MORGAN    CLEAR     26  22  86 W7        30.02F WCI  18
$$

COZ086-089-092>099-151200-
...SOUTHEAST COLORADO...

CITY           SKY/WX    TMP DP  RH WIND       PRES   REMARKS
PUEBLO         PTCLDY    28  25  88 NW6       30.11F WCI  22
LA JUNTA       CLEAR     29  24  82 SW6       30.12F WCI  23
LAMAR          CLEAR     23  16  74 CALM      30.12F
SPRINGFIELD      N/A     28  20  71 SW10      30.13F WCI  19
$$



USA.gov is the U.S. government's official web portal to all federal, state and local government web resources and services.